Emporia, KS

3:19 AM CDT on May 23, 2018 (GMT -0500)
Emporia Municipal

Weather History for KEMP - April, 2013

Change the Weather History Date:

Wednesday, April 3, 2013

  Actual Average Record
Temperature  
Mean Temperature 39 °F 52 °F  
Max Temperature 44 °F 64 °F 89 °F (2011)
Min Temperature 33 °F 39 °F 23 °F (2002)
Degree Days  
Heating Degree Days 26 14  
Month to date heating degree days 75 42  
Since 1 July heating degree days 4457 4474  
Cooling Degree Days 0 0  
Month to date cooling degree days 0 0  
Year to date cooling degree days 0 2  
Moisture  
Dew Point 26 °F    
Average Humidity 59    
Maximum Humidity 75    
Minimum Humidity 43    
Precipitation  
Precipitation 0.00 in 0.05 in 1.06 in (2017)
Month to date precipitation 0.00 0.17  
Year to date precipitation 4.46 4.56  
Sea Level Pressure  
Sea Level Pressure 30.31 in    
Wind  
Wind Speed 6 mph (ENE)    
Max Wind Speed 14 mph    
Max Gust Speed 16 mph    
Visibility 10 miles    
Events      
T = Trace of Precipitation, MM = Missing Value Source: NWS Daily Summary

Daily Weather History Graph

Daily Weather History Graph

Search for Another Location

Airport or City:

Astronomy

Apr. 03, 2013 Rise Set
Actual Time 7:06 AM CDT 7:50 PM CDT
Civil Twilight 6:39 AM CDT 8:16 PM CDT
Nautical Twilight 6:08 AM CDT 8:48 PM CDT
Astronomical Twilight 5:35 AM CDT 9:21 PM CDT
Moon 2:42 AM CDT (4/3) 1:08 PM CDT (4/3)
Length of Visible Light 13h 37m
Length of Day
12h 43m
Last Quarter, 44% of the Moon is Illuminated
Apr 3
Last Quarter
Apr 10
New
Apr 18
First Quarter
Apr 25
Full
May 2
Last Quarter

Hourly Weather History & Observations

Time (CDT) Temp. Windchill Dew Point Humidity Pressure Visibility Wind Dir Wind Speed Gust Speed Precip Events Conditions
12:53 AM 37.9 °F 33.5 °F 28.0 °F 68% 30.29 in 10.0 mi ENE 5.8 mph - N/A   Clear
1:53 AM 36.0 °F 31.1 °F 26.1 °F 67% 30.30 in 10.0 mi ENE 5.8 mph - N/A   Clear
2:53 AM 37.0 °F 34.5 °F 28.0 °F 70% 30.30 in 10.0 mi East 3.5 mph - N/A   Clear
3:53 AM 37.0 °F 32.4 °F 27.0 °F 67% 30.29 in 10.0 mi NE 5.8 mph - N/A   Clear
4:53 AM 34.0 °F 29.8 °F 26.1 °F 73% 30.29 in 10.0 mi NE 4.6 mph - N/A   Clear
5:53 AM 33.1 °F 28.7 °F 25.0 °F 72% 30.31 in 10.0 mi NNE 4.6 mph - N/A   Scattered Clouds
6:53 AM 33.1 °F 27.7 °F 25.0 °F 72% 30.32 in 10.0 mi ENE 5.8 mph - N/A   Scattered Clouds
7:53 AM 35.1 °F 29.3 °F 26.1 °F 70% 30.34 in 10.0 mi East 6.9 mph - N/A   Mostly Cloudy
8:53 AM 37.0 °F 29.3 °F 25.0 °F 62% 30.35 in 10.0 mi East 11.5 mph - N/A   Overcast
9:53 AM 39.0 °F 32.3 °F 25.0 °F 57% 30.36 in 10.0 mi East 10.4 mph - N/A   Mostly Cloudy
10:53 AM 42.1 °F 35.7 °F 23.0 °F 47% 30.37 in 10.0 mi ESE 11.5 mph - N/A   Clear
11:53 AM 42.1 °F 36.6 °F 23.0 °F 47% 30.37 in 10.0 mi ESE 9.2 mph - N/A   Overcast
12:53 PM 43.0 °F 39.5 °F 21.9 °F 43% 30.36 in 10.0 mi ESE 5.8 mph - N/A   Overcast
1:53 PM 43.0 °F 38.2 °F 23.0 °F 45% 30.34 in 10.0 mi East 8.1 mph - N/A   Overcast
2:53 PM 42.1 °F 37.1 °F 24.1 °F 49% 30.32 in 10.0 mi ENE 8.1 mph - N/A   Overcast
3:53 PM 43.0 °F 38.2 °F 25.0 °F 49% 30.31 in 10.0 mi NE 8.1 mph - N/A   Overcast
4:53 PM 44.1 °F 40.1 °F 25.0 °F 47% 30.28 in 10.0 mi ENE 6.9 mph - N/A   Overcast
5:53 PM 44.1 °F 41.5 °F 25.0 °F 47% 30.27 in 10.0 mi ENE 4.6 mph - N/A   Overcast
6:53 PM 44.1 °F 42.5 °F 26.1 °F 49% 30.28 in 10.0 mi ENE 3.5 mph - N/A   Overcast
7:53 PM 43.0 °F - 27.0 °F 53% 30.27 in 10.0 mi Calm Calm - N/A   Overcast
8:53 PM 42.1 °F 40.2 °F 30.9 °F 65% 30.27 in 10.0 mi West 3.5 mph - N/A   Overcast
9:53 PM 41.0 °F - 33.1 °F 73% 30.28 in 10.0 mi Calm Calm - N/A   Overcast
10:53 PM 41.0 °F 38.0 °F 32.0 °F 70% 30.27 in 10.0 mi WNW 4.6 mph - N/A   Overcast
11:53 PM 41.0 °F 39.0 °F 30.9 °F 67% 30.25 in 10.0 mi NNW 3.5 mph - N/A   Overcast